RPA4456 KMIA-KATL

Flight info

Callsign RPA4456
Flight time N/A
Altitude 32000
Route FLMGO2 STYMY Q77 MJAMS/N0405F330 Q77 SHRKS/N0408F340 LAIRI LARZZ JJEDI4
Aircraft E75L/M-SDE3GILORVW/S

Departure

Time 2026-05-03 23:28
Airport Miami International Airport (KMIA)

Arrival

Time N/A
Airport Hartsfield Jackson Atlanta International Airport (KATL)
Time Latitude Longitude Altitude Speed Heading
2026-05-03 22:56 25.79817 -80.28669 17 ft 0 kts 99°
2026-05-03 23:15 25.79818 -80.28679 17 ft 3 kts 99°
2026-05-03 23:15 25.79821 -80.28699 19 ft 3 kts 99°
2026-05-03 23:15 25.79822 -80.28704 18 ft 0 kts 99°
2026-05-03 23:18 25.79823 -80.28700 19 ft 1 kts 77°
2026-05-03 23:18 25.79828 -80.28694 19 ft 1 kts 34°
2026-05-03 23:19 25.79833 -80.28693 19 ft 0 kts 356°
2026-05-03 23:19 25.79834 -80.28693 19 ft 0 kts 353°
2026-05-03 23:23 25.79837 -80.28694 18 ft 2 kts 347°
2026-05-03 23:23 25.79868 -80.28712 18 ft 8 kts 333°
2026-05-03 23:23 25.79938 -80.28735 23 ft 13 kts 355°
2026-05-03 23:23 25.80014 -80.28779 22 ft 15 kts 279°
2026-05-03 23:24 25.80011 -80.28924 19 ft 23 kts 268°
2026-05-03 23:24 25.80004 -80.29127 20 ft 29 kts 268°
2026-05-03 23:24 25.79994 -80.29336 17 ft 27 kts 268°
2026-05-03 23:24 25.79987 -80.29528 12 ft 0 kts 266°
2026-05-03 23:25 25.79987 -80.29538 12 ft 8 kts 265°
2026-05-03 23:25 25.79981 -80.29665 13 ft 24 kts 268°
2026-05-03 23:25 25.79972 -80.29884 10 ft 19 kts 266°
2026-05-03 23:25 25.79995 -80.30034 12 ft 0 kts 286°
2026-05-03 23:27 25.79995 -80.30036 11 ft 1 kts 286°
2026-05-03 23:27 25.80009 -80.30087 14 ft 11 kts 291°
2026-05-03 23:27 25.80062 -80.30105 13 ft 9 kts 40°
2026-05-03 23:28 25.80081 -80.30025 12 ft 14 kts 89°
2026-05-03 23:28 25.80088 -80.29774 12 ft 71 kts 88°
2026-05-03 23:28 25.80117 -80.28901 54 ft 151 kts 87°
2026-05-03 23:28 25.80162 -80.27588 632 ft 193 kts 86°
2026-05-03 23:29 25.80252 -80.25857 908 ft 251 kts 87°
2026-05-03 23:29 25.80359 -80.23860 1980 ft 261 kts 88°
2026-05-03 23:29 25.80471 -80.21798 3214 ft 288 kts 87°
2026-05-03 23:29 25.80550 -80.19360 3169 ft 324 kts 82°
2026-05-03 23:30 25.81314 -80.17070 3132 ft 315 kts 55°
2026-05-03 23:30 25.82947 -80.15407 3729 ft 327 kts 26°
2026-05-03 23:30 25.85092 -80.14735 5091 ft 313 kts 359°
2026-05-03 23:30 25.87141 -80.15067 6773 ft 287 kts 343°
2026-05-03 23:31 25.89041 -80.15616 8065 ft 281 kts 340°
2026-05-03 23:31 25.90928 -80.16259 8920 ft 286 kts 338°
2026-05-03 23:31 25.92845 -80.16929 9687 ft 295 kts 338°
2026-05-03 23:31 25.94897 -80.17657 9851 ft 322 kts 336°
2026-05-03 23:32 25.96956 -80.18747 10079 ft 339 kts 326°
2026-05-03 23:32 25.98944 -80.20132 11007 ft 330 kts 322°
2026-05-03 23:32 26.00802 -80.21530 12254 ft 315 kts 321°
2026-05-03 23:32 26.02563 -80.22903 13375 ft 304 kts 319°
2026-05-03 23:33 26.04203 -80.24365 14077 ft 303 kts 314°
2026-05-03 23:33 26.05832 -80.25958 14271 ft 321 kts 313°
2026-05-03 23:33 26.07545 -80.27656 14433 ft 337 kts 313°
2026-05-03 23:33 26.09337 -80.29435 14631 ft 351 kts 313°
2026-05-03 23:34 26.11171 -80.31254 15078 ft 354 kts 313°
2026-05-03 23:34 26.12995 -80.33066 15552 ft 357 kts 313°
2026-05-03 23:34 26.14859 -80.34925 15875 ft 364 kts 313°
2026-05-03 23:34 26.16783 -80.36841 15953 ft 377 kts 313°
2026-05-03 23:35 26.18767 -80.38816 16000 ft 389 kts 313°
2026-05-03 23:35 26.20875 -80.40786 16019 ft 402 kts 319°
2026-05-03 23:35 26.23144 -80.42518 15997 ft 384 kts 322°
2026-05-03 23:35 26.25354 -80.44057 15987 ft 371 kts 324°
2026-05-03 23:36 26.27703 -80.45404 16467 ft 382 kts 328°
2026-05-03 23:36 26.30070 -80.46686 17478 ft 376 kts 328°
2026-05-03 23:36 26.32440 -80.47952 18157 ft 379 kts 328°
2026-05-03 23:36 26.34836 -80.49226 18743 ft 383 kts 328°
2026-05-03 23:37 26.37251 -80.50508 19314 ft 385 kts 328°
2026-05-03 23:37 26.39648 -80.51783 19890 ft 388 kts 327°
2026-05-03 23:37 26.42099 -80.53087 20485 ft 392 kts 327°
2026-05-03 23:37 26.44575 -80.54404 21066 ft 395 kts 328°
2026-05-03 23:38 26.47106 -80.55648 21620 ft 400 kts 330°
2026-05-03 23:38 26.49721 -80.56796 22164 ft 408 kts 334°
2026-05-03 23:38 26.52462 -80.57720 22682 ft 413 kts 336°
2026-05-03 23:38 26.55238 -80.58623 23208 ft 417 kts 336°
2026-05-03 23:39 26.58041 -80.59514 23687 ft 420 kts 336°
2026-05-03 23:39 26.60870 -80.60411 24127 ft 423 kts 336°
2026-05-03 23:39 26.63673 -80.61301 24556 ft 426 kts 336°
2026-05-03 23:39 26.66536 -80.62210 24988 ft 428 kts 336°
2026-05-03 23:40 26.69410 -80.63124 25411 ft 430 kts 336°
2026-05-03 23:40 26.72310 -80.64048 25778 ft 435 kts 336°
2026-05-03 23:40 26.75244 -80.64983 26023 ft 441 kts 336°
2026-05-03 23:40 26.78220 -80.65931 26190 ft 449 kts 336°
2026-05-03 23:41 26.81247 -80.66894 26497 ft 451 kts 336°
2026-05-03 23:41 26.84225 -80.67838 27359 ft 441 kts 335°
2026-05-03 23:41 26.87184 -80.68787 27765 ft 443 kts 335°
2026-05-03 23:41 26.90158 -80.69712 28123 ft 442 kts 334°
2026-05-03 23:42 26.93084 -80.70792 28480 ft 443 kts 333°
2026-05-03 23:42 26.95982 -80.71873 28803 ft 445 kts 333°
2026-05-03 23:42 26.98933 -80.72989 29105 ft 448 kts 333°
2026-05-03 23:42 27.01901 -80.74114 29312 ft 453 kts 333°
2026-05-03 23:43 27.04910 -80.75253 29506 ft 457 kts 333°
2026-05-03 23:43 27.07942 -80.76403 29668 ft 462 kts 333°
2026-05-03 23:43 27.14122 -80.78746 29762 ft 475 kts 333°
2026-05-03 23:44 27.20343 -80.81095 29754 ft 454 kts 333°
2026-05-03 23:44 27.26342 -80.83385 29785 ft 464 kts 333°
2026-05-03 23:45 27.32457 -80.85727 29926 ft 464 kts 332°
2026-05-03 23:45 27.35494 -80.86956 30342 ft 462 kts 331°
2026-05-03 23:45 27.38525 -80.88203 30641 ft 462 kts 331°
2026-05-03 23:46 27.41546 -80.89446 30925 ft 462 kts 331°
2026-05-03 23:46 27.44567 -80.90690 31204 ft 462 kts 330°
2026-05-03 23:46 27.47593 -80.91937 31484 ft 463 kts 330°
2026-05-03 23:46 27.50625 -80.93186 31754 ft 462 kts 330°
2026-05-03 23:47 27.53648 -80.94432 31940 ft 461 kts 330°
2026-05-03 23:47 27.56628 -80.95662 32009 ft 463 kts 330°
2026-05-03 23:47 27.62751 -80.98188 32062 ft 469 kts 330°
2026-05-03 23:48 27.68876 -81.00718 32056 ft 467 kts 330°
2026-05-03 23:48 27.74988 -81.03247 32058 ft 468 kts 330°
2026-05-03 23:49 27.78037 -81.04514 31508 ft 465 kts 329°